Regional Weather Roundup
Issued by NWS Newport/Morehead, NC

Current Version | Previous Version | Text Only | Print | Product List | Glossary On
Versions: 1 2 3 4 5 6 7 8 9 10 11 12 13 14 15 16 17 18 19 20 21 22 23 24 25 26 27 28 29 30 31 32 33 34 35 36 37 38 39 40 41 42 43 44 45 46 47 48 49 50
000
ASUS42 KMHX 221610
RWRMHX
WEATHER ROUNDUP FOR EASTERN NORTH CAROLINA
NATIONAL WEATHER SERVICE NEWPORT/MOREHEAD CITY NC
1200 PM EDT MON SEP 22 2014

NOTE: "FAIR" INDICATES FEW OR NO CLOUDS BELOW 12,000 FEET
WITH NO SIGNIFICANT WEATHER AND/OR OBSTRUCTIONS TO VISIBILITY

NCZ015>017-031-032-045>047-102-103-221700-
NORTH COAST

CITY           SKY/WX    TMP DP  RH WIND       PRES   REMARKS
EDENTON        MOSUNNY   77  55  47 NW7       30.01F
ELIZABETH CITY CLOUDY    76  57  51 N10       30.00S
KITTY HAWK     MOSUNNY   76  60  56 N9        29.99S
MANTEO         MOSUNNY   75  58  55 N13       30.00S

$$

NCZ045>047-081-094-103-104-221700-
CENTRAL COAST

CITY           SKY/WX    TMP DP  RH WIND       PRES   REMARKS
FRISCO         MOSUNNY   77  68  73 N8G17     29.99R
SWANQUARTER      N/A     79 N/A N/A N8        29.97S

$$

NCZ095-097-098-100-101-221700-
SOUTHERN COAST

CITY           SKY/WX    TMP DP  RH WIND       PRES   REMARKS
BEAUFORT       MOSUNNY   81  62  52 N8        30.00S
CEDAR ISLAND     N/A     77 N/A N/A NW12G20   30.03S
JACKSONVILLE   CLOUDY    77  57  50 N13       30.02S
NEWPORT        NOT AVBL
PINEY ISLAND   MOSUNNY   80  58  46 N14       30.00S
WILMINGTON     PTSUNNY   78  59  51 N8        30.02F


$$

NCZ011>013-027>030-043-044-078>080-089-090>093-098-221700-
COASTAL PLAIN

CITY           SKY/WX    TMP DP  RH WIND       PRES   REMARKS
AHOSKIE        SUNNY     73  53  48 N10       30.03S
CLINTON        CLOUDY    71  60  69 N3        30.05S
ELIZABETHTOWN  LGT RAIN  70  67  90 CALM      30.04F
GOLDSBORO      PTSUNNY   73  59  61 CALM      30.03R
GREENVILLE     MOSUNNY   77  55  47 N7        30.05S
HAVELOCK       PTSUNNY   80  59  48 N12       30.02R
KENANSVILLE    PTSUNNY   72  56  55 CALM      30.05S
KINSTON        PTSUNNY   73  55  53 NW7       30.04S
NEW BERN       CLOUDY    79  57  46 VRB7      30.03R
RICHLANDS      PTSUNNY   73  57  56 CALM      30.04R
ROANOKE RAPIDS NOT AVBL
ROCKY MOUNT    MOSUNNY   75  53  46 N12       30.04S
WASHINGTON     SUNNY     74  58  57 N6        30.03S
WHITEVILLE     CLOUDY    68  59  73 NE5       30.04R

$$

AMZ130-135-150-152-154-156-158-170-250-252-270-ANZ085-086-088-633-658-670-221700-
MARINE OBSERVATIONS

STATION/POSITION TIME  TEMP    WIND        PRES    WAVE   SWELL
                       AIR SEA DIR/SP/G            HT/PER HT/PER
                 (UTC) (F)     (DEG/KT/KT) (MB)    (FT/S) (FT/S)
CHESAPEAKE LIGHT 1500   71     330/ 16/ 18 1016.2
BUOY 44014       1600   71 76  350/ 16/ 17 1015.2    5/ 9   3/ 9
DUCK             1600   73 74   10/ 12/ 14 1015.2
2E DUCK          1600                        N/A     3/ 9
OREGON INLET     1600   77 75  350/ 10/ 16 1015.7
BUOY 44095       1600      74                N/A     4/ 9   2/11
20E OREGON INLET NOT AVBL
HATTERAS CG      NOT AVBL
DIAMOND BUOY     1600   76     330/ 10/ 14 1015.2    5/ 8   5/ 8
CAPE LOOKOUT     1500   77      20/  8/ 10 1015.5
BEAUFORT LAB     1600   78 75  350/ 10/ 13 1015.4
30 SE NEW RIVER  1600   77 82  360/ 12/ 16 1015.4    4/ 8   3/ 8
5 SE WRIGHTSVILL 1500   74 79   20/ 12/ 14   N/A
BUOY 41002       1549   80 81  220/  4/  6 1018.5    4/ 6   3/ 6
BUOY 41004       1600   80 81  260/ 12/ 14 1016.2    4/ 5   2/ 8

$$



USA.gov is the U.S. government's official web portal to all federal, state and local government web resources and services.